Decorah, Iowa, United States (52101)
Lat: 43.30N, Lon: 91.79W
Wx Zone: IAZ010
Local Info
Past Weather Observations for Today

NOTE: This archive is for the closest National Weather Service station to Decorah. Information may differ from the station used for current weather conditions.

Click here for Long-term Archive

Time Weather Temperature Dewpoint Humidity Pressure Winds Precip Visibility
17:35
Clear
72°F / 22°C 59°F / 15°C 65% 29.77 in
(1008 mb)
S 15 mph
(S 24 kph)
- 10SM
17:15
Clear
72°F / 22°C 59°F / 15°C 65% 29.8 in
(1009 mb)
S 13.8 mph
(S 22 kph)
- 10SM
16:55
Clear
72°F / 22°C 59°F / 15°C 65% 29.8 in
(1009 mb)
S 17.3 mph
(S 28 kph)
- 10SM
16:35
Clear
73°F / 23°C 59°F / 15°C 61% 29.8 in
(1009 mb)
S 18.4 mph
(S 30 kph)
- 10SM
16:15
Clear
73°F / 23°C 59°F / 15°C 61% 29.8 in
(1009 mb)
S 20.7 mph
(S 33 kph)
- 10SM
15:55
Clear
72°F / 22°C 57°F / 14°C 61% 29.8 in
(1009 mb)
S 20.7 mph
(S 33 kph)
- 10SM
15:35
Clear
73°F / 23°C 59°F / 15°C 61% 29.83 in
(1010 mb)
S 17.3 mph
(S 28 kph)
- 10SM
15:15
Clear
73°F / 23°C 57°F / 14°C 57% 29.83 in
(1010 mb)
S 18.4 mph
(S 30 kph)
- 10SM
14:55
Clear
73°F / 23°C 59°F / 15°C 61% 29.83 in
(1010 mb)
S 16.1 mph
(S 26 kph)
-
14:35
Clear
73°F / 23°C 57°F / 14°C 57% 29.86 in
(1011 mb)
S 20.7 mph
(S 33 kph)
- 10SM
14:15
Clear
73°F / 23°C 57°F / 14°C 57% 29.86 in
(1011 mb)
S 12.7 mph
(S 20 kph)
- 10SM
13:55
Clear
73°F / 23°C 57°F / 14°C 57% 29.89 in
(1012 mb)
S 18.4 mph
(S 30 kph)
- 10SM
13:35
Partly Cloudy
73°F / 23°C 57°F / 14°C 57% 29.89 in
(1012 mb)
S 23 mph
(S 37 kph)
- 10SM
13:15
Mostly Cloudy
72°F / 22°C 57°F / 14°C 61% 29.89 in
(1012 mb)
S 15 mph
(S 24 kph)
- 10SM
12:55
Mostly Cloudy
72°F / 22°C 57°F / 14°C 61% 29.92 in
(1013 mb)
S 12.7 mph
(S 20 kph)
- 10SM
12:35
Mostly Cloudy
72°F / 22°C 57°F / 14°C 61% 29.92 in
(1013 mb)
S 15 mph
(S 24 kph)
- 10SM
12:15
Clear
70°F / 21°C 55°F / 13°C 60% 29.95 in
(1014 mb)
S 12.7 mph
(S 20 kph)
- 10SM
11:55
Clear
72°F / 22°C 55°F / 13°C 57% 29.95 in
(1014 mb)
S 15 mph
(S 24 kph)
- 10SM
11:35
Clear
70°F / 21°C 55°F / 13°C 60% 29.95 in
(1014 mb)
S 15 mph
(S 24 kph)
- 10SM
11:15
Clear
70°F / 21°C 55°F / 13°C 60% 29.95 in
(1014 mb)
SSE 13.8 mph
(SSE 22 kph)
- 10SM
10:55
Clear
68°F / 20°C 55°F / 13°C 64% 29.98 in
(1015 mb)
SSE 16.1 mph
(SSE 26 kph)
- 10SM
10:35
Clear
68°F / 20°C 55°F / 13°C 64% 29.98 in
(1015 mb)
S 16.1 mph
(S 26 kph)
- 10SM
10:15
Clear
68°F / 20°C 55°F / 13°C 64% 29.98 in
(1015 mb)
S 13.8 mph
(S 22 kph)
- 10SM
09:55
Clear
66°F / 19°C 55°F / 13°C 68% 29.98 in
(1015 mb)
S 16.1 mph
(S 26 kph)
- 10SM
09:35
Clear
64°F / 18°C 54°F / 12°C 68% 30.01 in
(1016 mb)
S 11.5 mph
(S 19 kph)
- 10SM
09:15
Clear
63°F / 17°C 54°F / 12°C 73% 30.01 in
(1016 mb)
S 13.8 mph
(S 22 kph)
- 10SM
08:55
Clear
61°F / 16°C 54°F / 12°C 77% 30.01 in
(1016 mb)
S 8.1 mph
(S 13 kph)
- 10SM
08:35
Clear
59°F / 15°C 52°F / 11°C 77% 30.01 in
(1016 mb)
SSE 12.7 mph
(SSE 20 kph)
- 10SM
08:15
Clear
57°F / 14°C 52°F / 11°C 82% 30.04 in
(1017 mb)
S 9.2 mph
(S 15 kph)
- 8SM
07:55
Clear
55°F / 13°C 52°F / 11°C 88% 30.04 in
(1017 mb)
S 9.2 mph
(S 15 kph)
- 7SM
07:35
Clear
Fog And Mist
54°F / 12°C 52°F / 11°C 94% 30.04 in
(1017 mb)
S 6.9 mph
(S 11 kph)
- 6SM
07:15
Clear
Fog And Mist
54°F / 12°C 50°F / 10°C 88% 30.04 in
(1017 mb)
SSE 8.1 mph
(SSE 13 kph)
- 4SM
06:55
Clear
Fog And Mist
52°F / 11°C 50°F / 10°C 94% 30.04 in
(1017 mb)
SSE 8.1 mph
(SSE 13 kph)
- 3SM
06:35
Clear
Fog And Mist
52°F / 11°C 50°F / 10°C 94% 30.06 in
(1018 mb)
SSE 6.9 mph
(SSE 11 kph)
- 3SM
06:15
Clear
Fog And Mist
52°F / 11°C 50°F / 10°C 94% 30.06 in
(1018 mb)
SSE 6.9 mph
(SSE 11 kph)
- 3SM
05:55
Clear
Fog And Mist
52°F / 11°C 50°F / 10°C 94% 30.04 in
(1017 mb)
SSE 8.1 mph
(SSE 13 kph)
- 4SM
05:35
Clear
Fog And Mist
52°F / 11°C 50°F / 10°C 94% 30.04 in
(1017 mb)
SSE 8.1 mph
(SSE 13 kph)
- 4SM
05:15
Clear
Fog And Mist
52°F / 11°C 50°F / 10°C 94% 30.04 in
(1017 mb)
SSE 8.1 mph
(SSE 13 kph)
- 4SM
04:55
Clear
Fog And Mist
52°F / 11°C 50°F / 10°C 94% 30.04 in
(1017 mb)
SSE 8.1 mph
(SSE 13 kph)
- 4SM
04:35
Clear
Fog And Mist
52°F / 11°C 50°F / 10°C 94% 30.04 in
(1017 mb)
SSE 8.1 mph
(SSE 13 kph)
- 4SM
04:15
Clear
Fog And Mist
52°F / 11°C 50°F / 10°C 94% 30.04 in
(1017 mb)
SSE 9.2 mph
(SSE 15 kph)
- 4SM
03:55
Clear
Fog And Mist
52°F / 11°C 52°F / 11°C 100% 30.06 in
(1018 mb)
SSE 8.1 mph
(SSE 13 kph)
- 4SM
03:35
Clear
Fog And Mist
52°F / 11°C 52°F / 11°C 100% 30.06 in
(1018 mb)
SSE 6.9 mph
(SSE 11 kph)
- 5SM
03:15
Clear
Fog And Mist
54°F / 12°C 52°F / 11°C 94% 30.06 in
(1018 mb)
SSE 8.1 mph
(SSE 13 kph)
- 6SM
02:55
Clear
54°F / 12°C 52°F / 11°C 94% 30.06 in
(1018 mb)
SE 8.1 mph
(SE 13 kph)
- 7SM
02:35
Clear
54°F / 12°C 52°F / 11°C 94% 30.06 in
(1018 mb)
SSE 8.1 mph
(SSE 13 kph)
- 7SM
02:15
Clear
54°F / 12°C 52°F / 11°C 94% 30.06 in
(1018 mb)
SSE 9.2 mph
(SSE 15 kph)
- 7SM
01:55
Clear
54°F / 12°C 52°F / 11°C 94% 30.06 in
(1018 mb)
SSE 8.1 mph
(SSE 13 kph)
- 9SM
01:35
Clear
54°F / 12°C 52°F / 11°C 94% 30.06 in
(1018 mb)
SSE 6.9 mph
(SSE 11 kph)
- 10SM
01:15
Clear
54°F / 12°C 52°F / 11°C 94% 30.06 in
(1018 mb)
SSE 9.2 mph
(SSE 15 kph)
- 10SM
00:55
Clear
54°F / 12°C 52°F / 11°C 94% 30.09 in
(1019 mb)
SE 8.1 mph
(SE 13 kph)
- 10SM
00:35
Partly Cloudy
54°F / 12°C 52°F / 11°C 94% 30.09 in
(1019 mb)
SE 8.1 mph
(SE 13 kph)
- 10SM
00:15
Clear
54°F / 12°C 52°F / 11°C 94% 30.09 in
(1019 mb)
SE 9.2 mph
(SE 15 kph)
- 10SM
Time Weather Temperature Dewpoint Humidity Pressure Winds Precip Visibility


Weather for websites

WeatherForYou.com, LLC is not responsible for any damages or problems caused by this service. Current weather conditions are obtained from the closest station including government and personal stations which may have varying degrees of accuracy. Weather forecasts are derived from the NOAA NDFD. Like all things, this site belongs to Jesus Christ... He just trusts me to maintain it. If you have any questions or comments email webmaster@weatherforyou.com

Copyright © 2014, WeatherForYou.com LLC. All rights reserved.